Time,TemperatureF,DewpointF,PressureIn,WindDirection,WindDirectionDegrees,WindSpeedMPH,WindSpeedGustMPH,Humidity,HourlyPrecipIn,Conditions,Clouds,dailyrainin,SoftwareType,DateUTC
2013-03-15 00:03:00,24.0,12.0,29.85,NW,317,6.0,10.0,60,0.00,,,0.00,,2013-03-15 04:03:00,
2013-03-15 00:13:00,24.0,12.0,29.85,NW,317,6.0,10.0,60,0.00,,,0.00,,2013-03-15 04:13:00,
2013-03-15 00:23:00,24.0,13.0,29.85,WNW,283,4.0,11.0,61,0.00,,,0.00,,2013-03-15 04:23:00,
2013-03-15 00:32:00,24.0,12.0,29.85,NW,318,0.0,8.0,59,0.00,,,0.00,,2013-03-15 04:32:00,
2013-03-15 00:43:00,24.0,12.0,29.85,NW,318,0.0,8.0,59,0.00,,,0.00,,2013-03-15 04:43:00,
2013-03-15 00:53:00,23.0,10.0,29.86,NNW,332,0.0,4.0,58,0.00,,,0.00,,2013-03-15 04:53:00,
2013-03-15 01:02:00,24.0,13.0,29.85,NNW,339,1.0,6.0,61,0.00,,,0.00,,2013-03-15 05:02:00,
2013-03-15 01:12:00,24.0,13.0,29.85,NNW,339,1.0,6.0,61,0.00,,,0.00,,2013-03-15 05:12:00,
2013-03-15 01:23:00,24.0,14.0,29.86,West,265,7.0,15.0,65,0.00,,,0.00,,2013-03-15 05:23:00,
2013-03-15 01:32:00,24.0,15.0,29.86,WNW,288,10.0,19.0,67,0.00,,,0.00,,2013-03-15 05:32:00,
2013-03-15 01:42:00,24.0,15.0,29.86,WNW,288,10.0,19.0,67,0.00,,,0.00,,2013-03-15 05:42:00,
2013-03-15 01:52:00,24.0,15.0,29.86,WNW,290,9.0,17.0,68,0.00,,,0.00,,2013-03-15 05:52:00,
2013-03-15 02:02:00,24.0,15.0,29.86,WNW,282,9.0,15.0,67,0.00,,,0.00,,2013-03-15 06:02:00,
2013-03-15 02:12:00,24.0,15.0,29.86,WNW,282,9.0,15.0,67,0.00,,,0.00,,2013-03-15 06:12:00,
2013-03-15 02:22:00,25.0,15.0,29.86,NW,315,10.0,21.0,66,0.00,,,0.00,,2013-03-15 06:22:00,
2013-03-15 02:32:00,25.0,15.0,29.86,WNW,297,11.0,19.0,66,0.00,,,0.00,,2013-03-15 06:32:00,
2013-03-15 02:42:00,25.0,15.0,29.86,WNW,297,11.0,19.0,66,0.00,,,0.00,,2013-03-15 06:42:00,
2013-03-15 02:53:00,25.0,15.0,29.85,WNW,282,12.0,19.0,64,0.00,,,0.00,,2013-03-15 06:53:00,
2013-03-15 03:02:00,25.0,15.0,29.85,West,272,13.0,19.0,64,0.00,,,0.00,,2013-03-15 07:02:00,
2013-03-15 03:12:00,25.0,15.0,29.85,West,272,13.0,19.0,64,0.00,,,0.00,,2013-03-15 07:12:00,
2013-03-15 03:22:00,25.0,14.0,29.85,WNW,293,12.0,19.0,63,0.00,,,0.00,,2013-03-15 07:22:00,
2013-03-15 03:32:00,25.0,15.0,29.85,West,278,16.0,29.0,64,0.00,,,0.00,,2013-03-15 07:32:00,
2013-03-15 03:42:00,25.0,15.0,29.85,West,278,16.0,29.0,64,0.00,,,0.00,,2013-03-15 07:42:00,
2013-03-15 03:52:00,25.0,15.0,29.85,NW,305,16.0,23.0,65,0.00,,,0.00,,2013-03-15 07:52:00,
2013-03-15 04:02:00,25.0,15.0,29.85,WNW,282,14.0,21.0,64,0.00,,,0.00,,2013-03-15 08:02:00,
2013-03-15 04:12:00,25.0,15.0,29.85,WNW,282,14.0,21.0,64,0.00,,,0.00,,2013-03-15 08:12:00,
2013-03-15 04:23:00,25.0,13.0,29.85,West,269,13.0,23.0,59,0.00,,,0.00,,2013-03-15 08:23:00,
2013-03-15 04:33:00,25.0,15.0,29.85,NW,315,12.0,20.0,64,0.00,,,0.00,,2013-03-15 08:33:00,
2013-03-15 04:42:00,25.0,15.0,29.85,NW,315,12.0,20.0,64,0.00,,,0.00,,2013-03-15 08:42:00,
2013-03-15 04:52:00,25.0,13.0,29.85,WNW,303,12.0,19.0,59,0.00,,,0.00,,2013-03-15 08:52:00,
2013-03-15 05:02:00,24.0,12.0,29.85,NW,307,17.0,25.0,59,0.00,,,0.00,,2013-03-15 09:02:00,
2013-03-15 05:12:00,24.0,12.0,29.85,NW,307,17.0,25.0,59,0.00,,,0.00,,2013-03-15 09:12:00,
2013-03-15 05:22:00,25.0,14.0,29.86,WNW,301,16.0,23.0,62,0.00,,,0.00,,2013-03-15 09:22:00,
2013-03-15 05:33:00,25.0,12.0,29.86,WNW,286,14.0,22.0,58,0.00,,,0.00,,2013-03-15 09:33:00,
2013-03-15 05:43:00,25.0,12.0,29.86,WNW,286,14.0,22.0,58,0.00,,,0.00,,2013-03-15 09:43:00,
2013-03-15 05:53:00,25.0,13.0,29.86,West,265,14.0,23.0,60,0.00,,,0.00,,2013-03-15 09:53:00,
2013-03-15 06:03:00,24.0,12.0,29.87,NW,308,14.0,21.0,59,0.00,,,0.00,,2013-03-15 10:03:00,
2013-03-15 06:13:00,24.0,12.0,29.87,NW,308,14.0,21.0,59,0.00,,,0.00,,2013-03-15 10:13:00,
2013-03-15 06:23:00,24.0,12.0,29.87,WNW,293,11.0,17.0,59,0.00,,,0.00,,2013-03-15 10:23:00,
2013-03-15 06:33:00,24.0,12.0,29.87,WNW,284,11.0,22.0,59,0.00,,,0.00,,2013-03-15 10:33:00,
2013-03-15 06:43:00,24.0,12.0,29.87,WNW,284,11.0,22.0,59,0.00,,,0.00,,2013-03-15 10:43:00,
2013-03-15 06:52:00,24.0,12.0,29.88,WNW,299,10.0,17.0,59,0.00,,,0.00,,2013-03-15 10:52:00,
2013-03-15 07:03:00,24.0,12.0,29.88,WNW,285,7.0,14.0,60,0.00,,,0.00,,2013-03-15 11:03:00,
2013-03-15 07:12:00,24.0,12.0,29.88,WNW,285,7.0,14.0,60,0.00,,,0.00,,2013-03-15 11:12:00,
2013-03-15 07:23:00,24.0,13.0,29.88,WSW,258,6.0,12.0,62,0.00,,,0.00,,2013-03-15 11:23:00,
2013-03-15 07:32:00,23.0,11.0,29.88,WNW,299,6.0,13.0,60,0.00,,,0.00,,2013-03-15 11:32:00,
2013-03-15 07:42:00,23.0,11.0,29.88,WNW,299,6.0,13.0,60,0.00,,,0.00,,2013-03-15 11:42:00,
2013-03-15 07:52:00,23.0,11.0,29.88,WNW,301,7.0,15.0,60,0.00,,,0.00,,2013-03-15 11:52:00,
2013-03-15 08:02:00,24.0,13.0,29.88,WNW,294,5.0,14.0,61,0.00,,,0.00,,2013-03-15 12:02:00,
2013-03-15 08:12:00,24.0,13.0,29.88,WNW,294,5.0,14.0,61,0.00,,,0.00,,2013-03-15 12:12:00,
2013-03-15 08:23:00,24.0,12.0,29.88,West,272,11.0,15.0,60,0.00,,,0.00,,2013-03-15 12:23:00,
2013-03-15 08:32:00,24.0,11.0,29.88,WNW,301,10.0,14.0,58,0.00,,,0.00,,2013-03-15 12:32:00,
2013-03-15 08:42:00,24.0,11.0,29.88,WNW,301,10.0,14.0,58,0.00,,,0.00,,2013-03-15 12:42:00,
2013-03-15 08:52:00,24.0,11.0,29.88,West,270,7.0,16.0,57,0.00,,,0.00,,2013-03-15 12:52:00,
2013-03-15 09:02:00,25.0,12.0,29.88,WNW,299,11.0,18.0,56,0.00,,,0.00,,2013-03-15 13:02:00,
2013-03-15 09:12:00,25.0,12.0,29.88,WNW,299,11.0,18.0,56,0.00,,,0.00,,2013-03-15 13:12:00,
2013-03-15 09:22:00,25.0,9.0,29.88,WNW,287,9.0,14.0,51,0.00,,,0.00,,2013-03-15 13:22:00,
2013-03-15 09:32:00,25.0,10.0,29.88,West,268,14.0,23.0,52,0.00,,,0.00,,2013-03-15 13:32:00,
2013-03-15 09:42:00,25.0,10.0,29.88,West,268,14.0,23.0,52,0.00,,,0.00,,2013-03-15 13:42:00,
2013-03-15 09:53:00,26.0,10.0,29.87,WNW,303,12.0,18.0,51,0.00,,,0.00,,2013-03-15 13:53:00,
2013-03-15 10:02:00,26.0,10.0,29.87,WNW,303,12.0,18.0,51,0.00,,,0.00,,2013-03-15 14:02:00,
2013-03-15 10:12:00,26.0,10.0,29.87,WNW,303,12.0,18.0,51,0.00,,,0.00,,2013-03-15 14:12:00,
2013-03-15 10:22:00,26.0,9.0,29.86,WNW,298,11.0,20.0,49,0.00,,,0.00,,2013-03-15 14:22:00,
2013-03-15 10:32:00,27.0,9.0,29.87,WNW,287,11.0,17.0,47,0.00,,,0.00,,2013-03-15 14:32:00,
2013-03-15 10:42:00,27.0,9.0,29.87,WNW,287,11.0,17.0,47,0.00,,,0.00,,2013-03-15 14:42:00,
2013-03-15 10:53:00,28.0,10.0,29.86,WSW,240,8.0,19.0,47,0.00,,,0.00,,2013-03-15 14:53:00,
2013-03-15 11:02:00,28.0,10.0,29.86,West,265,5.0,13.0,46,0.00,,,0.00,,2013-03-15 15:02:00,
2013-03-15 11:13:00,28.0,10.0,29.86,West,265,5.0,13.0,46,0.00,,,0.00,,2013-03-15 15:13:00,
2013-03-15 11:23:00,28.0,8.0,29.85,WSW,255,7.0,15.0,42,0.00,,,0.00,,2013-03-15 15:23:00,
2013-03-15 11:33:00,29.0,8.0,29.84,WNW,289,7.0,13.0,40,0.00,,,0.00,,2013-03-15 15:33:00,
2013-03-15 11:42:00,30.0,8.0,29.84,WSW,249,4.0,12.0,38,0.00,,,0.00,,2013-03-15 15:42:00,
2013-03-15 11:53:00,30.0,8.0,29.84,WSW,249,4.0,12.0,38,0.00,,,0.00,,2013-03-15 15:53:00,
2013-03-15 12:03:00,30.0,8.0,29.83,West,268,5.0,14.0,39,0.00,,,0.00,,2013-03-15 16:03:00,
2013-03-15 12:12:00,31.0,7.0,29.82,West,260,6.0,11.0,36,0.00,,,0.00,,2013-03-15 16:12:00,
2013-03-15 12:23:00,31.0,7.0,29.82,West,260,6.0,11.0,36,0.00,,,0.00,,2013-03-15 16:23:00,
2013-03-15 12:32:00,32.0,9.0,29.81,WSW,250,8.0,14.0,38,0.00,,,0.00,,2013-03-15 16:32:00,
2013-03-15 12:42:00,32.0,9.0,29.81,WSW,250,8.0,14.0,38,0.00,,,0.00,,2013-03-15 16:42:00,
2013-03-15 12:52:00,32.0,8.0,29.81,SW,218,8.0,15.0,36,0.00,,,0.00,,2013-03-15 16:52:00,
2013-03-15 13:02:00,32.0,7.0,29.80,SSW,207,5.0,9.0,35,0.00,,,0.00,,2013-03-15 17:02:00,
2013-03-15 13:12:00,32.0,7.0,29.80,SSW,207,5.0,9.0,35,0.00,,,0.00,,2013-03-15 17:12:00,
2013-03-15 13:22:00,33.0,9.0,29.79,SW,231,6.0,12.0,36,0.00,,,0.00,,2013-03-15 17:22:00,
2013-03-15 13:32:00,33.0,13.0,29.78,SSW,210,6.0,18.0,43,0.00,,,0.00,,2013-03-15 17:32:00,
2013-03-15 13:42:00,33.0,13.0,29.78,SSW,210,6.0,18.0,43,0.00,,,0.00,,2013-03-15 17:42:00,
2013-03-15 13:53:00,33.0,11.0,29.77,SSW,197,5.0,13.0,39,0.00,,,0.00,,2013-03-15 17:53:00,
2013-03-15 14:02:00,34.0,11.0,29.75,SSW,199,1.0,8.0,38,0.00,,,0.00,,2013-03-15 18:02:00,
2013-03-15 14:12:00,34.0,11.0,29.75,SSW,199,1.0,8.0,38,0.00,,,0.00,,2013-03-15 18:12:00,
2013-03-15 14:22:00,34.0,10.0,29.74,South,188,6.0,15.0,36,0.00,,,0.00,,2013-03-15 18:22:00,
2013-03-15 14:32:00,34.0,12.0,29.73,SSW,194,7.0,13.0,39,0.00,,,0.00,,2013-03-15 18:32:00,
2013-03-15 14:42:00,34.0,12.0,29.73,SSW,194,7.0,13.0,39,0.00,,,0.00,,2013-03-15 18:42:00,
2013-03-15 14:52:00,35.0,11.0,29.72,SSW,192,7.0,11.0,37,0.00,,,0.00,,2013-03-15 18:52:00,
2013-03-15 15:02:00,35.0,11.0,29.72,SSW,192,7.0,11.0,37,0.00,,,0.00,,2013-03-15 19:02:00,
2013-03-15 15:12:00,35.0,11.0,29.72,SSW,192,7.0,11.0,37,0.00,,,0.00,,2013-03-15 19:12:00,
2013-03-15 15:22:00,36.0,14.0,29.71,SW,230,5.0,13.0,40,0.00,,,0.00,,2013-03-15 19:22:00,
2013-03-15 15:32:00,36.0,14.0,29.71,SW,230,5.0,13.0,40,0.00,,,0.00,,2013-03-15 19:32:00,
2013-03-15 15:42:00,36.0,14.0,29.71,SW,230,5.0,13.0,40,0.00,,,0.00,,2013-03-15 19:42:00,
2013-03-15 15:53:00,37.0,13.0,29.70,SSE,166,6.0,14.0,37,0.00,,,0.00,,2013-03-15 19:53:00,
2013-03-15 16:02:00,38.0,15.0,29.69,WSW,241,7.0,16.0,38,0.00,,,0.00,,2013-03-15 20:02:00,
2013-03-15 16:12:00,38.0,15.0,29.69,WSW,241,7.0,16.0,38,0.00,,,0.00,,2013-03-15 20:12:00,
2013-03-15 16:22:00,38.0,16.0,29.69,WSW,241,10.0,23.0,41,0.00,,,0.00,,2013-03-15 20:22:00,
2013-03-15 16:32:00,38.0,16.0,29.67,SW,216,5.0,18.0,40,0.00,,,0.00,,2013-03-15 20:32:00,
2013-03-15 16:42:00,38.0,16.0,29.67,SW,216,5.0,18.0,40,0.00,,,0.00,,2013-03-15 20:42:00,
2013-03-15 16:52:00,39.0,19.0,29.67,SSW,199,8.0,20.0,44,0.00,,,0.00,,2013-03-15 20:52:00,
2013-03-15 17:02:00,38.0,21.0,29.67,WSW,251,8.0,16.0,49,0.00,,,0.00,,2013-03-15 21:02:00,
2013-03-15 17:12:00,38.0,21.0,29.67,WSW,251,8.0,16.0,49,0.00,,,0.00,,2013-03-15 21:12:00,
2013-03-15 17:22:00,38.0,20.0,29.67,SW,215,6.0,17.0,47,0.00,,,0.00,,2013-03-15 21:22:00,
2013-03-15 17:33:00,37.0,21.0,29.67,WSW,241,8.0,18.0,52,0.00,,,0.00,,2013-03-15 21:33:00,
2013-03-15 17:43:00,37.0,21.0,29.67,WSW,241,8.0,18.0,52,0.00,,,0.00,,2013-03-15 21:43:00,
2013-03-15 17:52:00,37.0,21.0,29.67,SSW,208,9.0,20.0,52,0.00,,,0.00,,2013-03-15 21:52:00,
2013-03-15 18:04:00,37.0,22.0,29.67,West,266,6.0,20.0,55,0.00,,,0.00,,2013-03-15 22:04:00,
2013-03-15 18:14:00,37.0,22.0,29.67,West,266,6.0,20.0,55,0.00,,,0.00,,2013-03-15 22:14:00,
2013-03-15 18:22:00,37.0,23.0,29.67,SW,216,8.0,15.0,56,0.00,,,0.00,,2013-03-15 22:22:00,
2013-03-15 18:32:00,37.0,24.0,29.67,WSW,251,6.0,17.0,58,0.00,,,0.00,,2013-03-15 22:32:00,
2013-03-15 18:42:00,37.0,24.0,29.67,WSW,251,6.0,17.0,58,0.00,,,0.00,,2013-03-15 22:42:00,
2013-03-15 18:52:00,37.0,24.0,29.67,SSW,203,5.0,13.0,60,0.00,,,0.00,,2013-03-15 22:52:00,
2013-03-15 19:03:00,37.0,24.0,29.67,WSW,241,7.0,16.0,59,0.00,,,0.00,,2013-03-15 23:03:00,
2013-03-15 19:12:00,37.0,24.0,29.67,WSW,241,7.0,16.0,59,0.00,,,0.00,,2013-03-15 23:12:00,
2013-03-15 19:22:00,37.0,25.0,29.67,SSW,212,5.0,13.0,61,0.00,,,0.00,,2013-03-15 23:22:00,
2013-03-15 19:32:00,36.0,24.0,29.67,SW,230,6.0,12.0,62,0.00,,,0.00,,2013-03-15 23:32:00,
2013-03-15 19:42:00,36.0,24.0,29.67,SW,230,6.0,12.0,62,0.00,,,0.00,,2013-03-15 23:42:00,
2013-03-15 19:53:00,36.0,26.0,29.67,SW,216,8.0,15.0,67,0.00,,,0.00,,2013-03-15 23:53:00,
2013-03-15 20:03:00,36.0,26.0,29.68,SSW,196,7.0,13.0,68,0.00,,,0.00,,2013-03-16 00:03:00,
2013-03-15 20:12:00,36.0,26.0,29.68,SSW,196,7.0,13.0,68,0.00,,,0.00,,2013-03-16 00:12:00,
2013-03-15 20:22:00,36.0,27.0,29.68,SSW,196,7.0,17.0,69,0.00,,,0.00,,2013-03-16 00:22:00,
2013-03-15 20:32:00,36.0,27.0,29.68,SSW,196,7.0,17.0,69,0.00,,,0.00,,2013-03-16 00:32:00,
2013-03-15 20:42:00,36.0,27.0,29.68,SSW,196,7.0,17.0,69,0.00,,,0.00,,2013-03-16 00:42:00,
2013-03-15 20:52:00,35.0,26.0,29.69,WSW,255,4.0,12.0,70,0.00,,,0.00,,2013-03-16 00:52:00,
2013-03-15 21:03:00,35.0,27.0,29.69,SW,225,3.0,11.0,71,0.00,,,0.00,,2013-03-16 01:03:00,
2013-03-15 21:12:00,35.0,27.0,29.69,SW,225,3.0,11.0,71,0.00,,,0.00,,2013-03-16 01:12:00,
2013-03-15 21:22:00,35.0,27.0,29.69,WSW,248,3.0,8.0,72,0.00,,,0.00,,2013-03-16 01:22:00,
2013-03-15 21:32:00,35.0,27.0,29.69,SSW,213,4.0,9.0,72,0.00,,,0.00,,2013-03-16 01:32:00,
2013-03-15 21:42:00,35.0,27.0,29.69,SSW,213,4.0,9.0,72,0.00,,,0.00,,2013-03-16 01:42:00,
2013-03-15 21:52:00,35.0,27.0,29.69,WSW,238,3.0,13.0,72,0.00,,,0.00,,2013-03-16 01:52:00,
2013-03-15 22:02:00,34.0,26.0,29.68,SW,214,3.0,9.0,73,0.00,,,0.00,,2013-03-16 02:02:00,
2013-03-15 22:12:00,34.0,26.0,29.68,SW,214,3.0,9.0,73,0.00,,,0.00,,2013-03-16 02:12:00,
2013-03-15 22:23:00,34.0,27.0,29.68,SSW,211,6.0,10.0,74,0.00,,,0.00,,2013-03-16 02:23:00,
2013-03-15 22:33:00,34.0,27.0,29.68,SW,218,0.0,11.0,74,0.00,,,0.00,,2013-03-16 02:33:00,
2013-03-15 22:43:00,34.0,27.0,29.68,SW,218,0.0,11.0,74,0.00,,,0.00,,2013-03-16 02:43:00,
2013-03-15 22:52:00,34.0,27.0,29.68,SW,234,3.0,11.0,75,0.00,,,0.00,,2013-03-16 02:52:00,
2013-03-15 23:02:00,34.0,27.0,29.69,West,266,5.0,9.0,75,0.00,,,0.00,,2013-03-16 03:02:00,
2013-03-15 23:12:00,34.0,27.0,29.69,West,266,5.0,9.0,75,0.00,,,0.00,,2013-03-16 03:12:00,
2013-03-15 23:22:00,34.0,27.0,29.69,SSW,195,4.0,9.0,75,0.00,,,0.00,,2013-03-16 03:22:00,
2013-03-15 23:33:00,34.0,28.0,29.70,West,265,11.0,19.0,78,0.00,,,0.00,,2013-03-16 03:33:00,
2013-03-15 23:43:00,34.0,28.0,29.70,West,265,11.0,19.0,78,0.00,,,0.00,,2013-03-16 03:43:00,
2013-03-15 23:53:00,34.0,28.0,29.70,WSW,238,7.0,14.0,80,0.00,,,0.00,,2013-03-16 03:53:00,